Home   Weather   Toledo   Past weeks

Flag for USA Past Weather in Toledo, Ohio, USA — Yesterday and Last 2 Weeks

Now
34 °F

Light snow. Low clouds.


Feels Like: 30 °F
Forecast: 30 / 39 °F
Wind: 5 mph from Southeast

Location: Toledo Suburban Airport

Current Time: Dec 4, 2016 at 7:46:35 pm

Latest Report: Dec 4, 2016 at 6:54 pm


Visibility: 2 mi

Pressure: 29.93 "Hg

Humidity: 91%

Dew Point: 32 °F

Location of ToledoLocation

Past Weather in Toledo — Graph

°F

Toledo Temperature Yesterday

Maximum temperature yesterday: 39 °F (at 2:54 pm)
Minimum temperature yesterday: 36 °F (at 11:34 pm)
Average temperature yesterday: 38 °F

High & Low Weather Summary for the Past Weeks

 TemperatureHumidityPressure
High60 °F (Nov 29, 2:34 pm)95% (Nov 24, 4:54 am)30.38 "Hg (Nov 24, 4:54 am)
Low20 °F (Nov 22, 6:34 am)42% (Nov 22, 1:54 pm)29.40 "Hg (Nov 28, 11:54 pm)
Average39 °F76%30.06 "Hg
* Reported Nov 19 6:14 pm — Dec 4 6:54 pm, Toledo, Weather by CustomWeather, © 2016

Note: Actual official high and low records may vary slightly from our data, if they occured in-between our weather recording intervals... More about our weather records

Advertising

Toledo Weather History for the Previous 24 Hours

Scroll right to see more
 ConditionsComfort  
Time TempWeatherWind HumidityBarometerVisibility
6:54 pm
Sun, Dec 4
34 °FLight snow. Low clouds.5 mph91%29.93 "Hg2 mi
6:14 pm36 °FLight snow. Mostly cloudy.5 mph84%29.94 "Hg5 mi
5:54 pm38 °FLight snow. Overcast.3 mph77%29.97 "Hg5 mi
5:34 pm39 °FOvercast.5 mph69%29.98 "Hg10 mi
5:14 pm39 °FOvercast.5 mph69%29.98 "Hg10 mi
4:54 pm39 °FCloudy.3 mph69%30.00 "Hg10 mi
4:34 pm39 °FMostly cloudy.6 mph67%30.01 "Hg10 mi
4:14 pm39 °FMore clouds than sun.3 mph67%30.02 "Hg10 mi
3:53 pm39 °FMostly cloudy.5 mph66%30.02 "Hg10 mi
3:34 pm39 °FCloudy.6 mph67%30.01 "Hg10 mi
3:14 pm39 °FMore clouds than sun.3 mph67%30.03 "Hg10 mi
2:54 pm39 °FOvercast.6 mph66%30.04 "Hg10 mi
2:34 pm39 °FOvercast.5 mph66%30.04 "Hg10 mi
2:14 pm39 °FOvercast.6 mph67%30.05 "Hg10 mi
1:54 pm39 °FOvercast.6 mph67%30.06 "Hg10 mi
1:34 pm40 °FMore clouds than sun.7 mph66%30.08 "Hg10 mi
1:14 pm40 °FMore clouds than sun.6 mph65%30.09 "Hg10 mi
12:54 pm39 °FPartly sunny.6 mph65%30.10 "Hg10 mi
12:34 pm39 °FScattered clouds.7 mph65%30.12 "Hg10 mi
12:14 pm39 °FScattered clouds.5 mph64%30.13 "Hg10 mi
11:54 am40 °FBroken clouds.7 mph64%30.15 "Hg10 mi
11:34 am39 °FOvercast.6 mph65%30.18 "Hg10 mi
11:14 am39 °FOvercast.6 mph64%30.19 "Hg10 mi
10:54 am39 °FOvercast.6 mph64%30.20 "Hg10 mi
10:34 am39 °FOvercast.5 mph66%30.22 "Hg10 mi
10:14 am38 °FOvercast.5 mph66%30.22 "Hg10 mi
9:54 am37 °FOvercast.3 mph67%30.22 "Hg10 mi
9:34 am36 °FOvercast.No wind74%30.23 "Hg7 mi
9:14 am36 °FOvercast.No wind77%30.23 "Hg7 mi
8:54 am35 °FOvercast.No wind79%30.23 "Hg10 mi
8:34 am35 °FOvercast.No wind82%30.23 "Hg7 mi
8:14 am34 °FOvercast.No wind86%30.23 "Hg7 mi
7:54 am33 °FOvercast.No wind85%30.23 "Hg7 mi
7:34 am33 °FOvercast.No wind85%30.23 "Hg10 mi
7:14 am32 °FPassing clouds.No wind85%30.24 "Hg10 mi
6:54 am33 °FPassing clouds.No wind83%30.23 "Hg10 mi
6:34 am33 °FPassing clouds.No wind83%30.24 "Hg10 mi
6:14 am34 °FPassing clouds.No wind78%30.23 "Hg10 mi
5:54 am35 °FPassing clouds.No wind75%30.23 "Hg10 mi
5:34 am35 °FOvercast.No wind74%30.25 "Hg10 mi
5:14 am36 °FOvercast.No wind74%30.26 "Hg10 mi
4:54 am36 °FOvercast.No wind74%30.27 "Hg10 mi
4:34 am36 °FOvercast.No wind74%30.26 "Hg10 mi
4:14 am36 °FOvercast.No wind74%30.26 "Hg10 mi
3:54 am36 °FOvercast.No wind75%30.26 "Hg10 mi
3:34 am36 °FOvercast.No wind76%30.27 "Hg10 mi
3:14 am36 °FOvercast.No wind76%30.27 "Hg10 mi
2:54 am36 °FOvercast.No wind75%30.27 "Hg10 mi
2:34 am36 °FOvercast.No wind78%30.27 "Hg10 mi
2:14 am35 °FOvercast.No wind82%30.28 "Hg10 mi
1:54 am35 °FOvercast.No wind82%30.27 "Hg10 mi
1:34 am36 °FOvercast.No wind82%30.28 "Hg10 mi
1:14 am36 °FOvercast.No wind82%30.28 "Hg10 mi
12:54 am36 °FOvercast.No wind81%30.28 "Hg10 mi
12:34 am36 °FOvercast.No wind81%30.29 "Hg10 mi
12:14 am36 °FOvercast.No wind81%30.29 "Hg10 mi
11:54 pm
Sat, Dec 3
36 °FOvercast.No wind78%30.29 "Hg10 mi
11:34 pm36 °FOvercast.No wind80%30.29 "Hg10 mi
11:14 pm36 °FOvercast.No wind79%30.30 "Hg10 mi
10:54 pm36 °FOvercast.No wind76%30.30 "Hg10 mi
10:34 pm36 °FOvercast.No wind76%30.30 "Hg10 mi
9:54 pm36 °FOvercast.No wind73%30.31 "Hg10 mi
9:34 pm37 °FOvercast.No wind71%30.30 "Hg10 mi
9:14 pm37 °FOvercast.No wind67%30.30 "Hg10 mi
8:54 pm38 °FOvercast.No wind64%30.31 "Hg10 mi
8:34 pm38 °FOvercast.No wind64%30.30 "Hg10 mi
8:14 pm37 °FOvercast.No wind74%30.30 "Hg10 mi
7:54 pm38 °FOvercast.No wind68%30.30 "Hg10 mi
7:34 pm37 °FOvercast.No wind80%30.30 "Hg10 mi
7:14 pm37 °FOvercast.No wind79%30.30 "Hg10 mi
Weather by CustomWeather, © 2016

See weather overviewHow to use our weather pages